| time (UTC) | temp F | wind direction | speed MPH | gust MPH | rain 1hr in | rain 24hr in | rain mn in | humidity % | barometer mb |
| 20260505073515 | 34 | 360 | 2.0 | 3.0 | 0.00 | 0.00 | 0.00 | 43 | 928.8 |
| 20260505073037 | 33 | 360 | 2.0 | 3.0 | 0.00 | 0.00 | 0.00 | 44 | 928.7 |
| 20260505072516 | 33 | 360 | 2.0 | 4.0 | 0.00 | 0.00 | 0.00 | 44 | 928.8 |
| 20260505072016 | 33 | 360 | 2.0 | 5.0 | 0.00 | 0.00 | 0.00 | 41 | 928.6 |
| 20260505071535 | 33 | 360 | 4.0 | 5.0 | 0.00 | 0.00 | 0.00 | 42 | 928.8 |
| 20260505071016 | 33 | 360 | 2.0 | 3.0 | 0.00 | 0.00 | 0.00 | 42 | 928.8 |
| 20260505070517 | 33 | 360 | 1.0 | 2.0 | 0.00 | 0.00 | 0.00 | 42 | 928.6 |
| 20260505070039 | 33 | 360 | 1.0 | 3.0 | 0.00 | 0.00 | 0.00 | 43 | 928.8 |
| 20260505065518 | 33 | 360 | 0.0 | 0.0 | 0.00 | 0.00 | 0.00 | 43 | 928.7 |
| 20260505065014 | 32 | 360 | 0.0 | 2.0 | 0.00 | 0.00 | 0.00 | 41 | 928.7 |
| 20260505064603 | 32 | 360 | 1.0 | 4.0 | 0.00 | 0.00 | 0.00 | 42 | 928.7 |
| 20260505064014 | 33 | 360 | 1.0 | 4.0 | 0.00 | 0.00 | 0.00 | 40 | 928.6 |
| 20260505063518 | 33 | 360 | 1.0 | 2.0 | 0.00 | 0.00 | 0.00 | 42 | 928.6 |
| 20260505063038 | 33 | 360 | 0.0 | 2.0 | 0.00 | 0.00 | 0.00 | 41 | 928.7 |
| 20260505062513 | 34 | 360 | 0.0 | 2.0 | 0.00 | 0.00 | 0.00 | 41 | 928.5 |
| 20260505062018 | 34 | 360 | 1.0 | 2.0 | 0.00 | 0.00 | 0.00 | 38 | 928.7 |
| 20260505061539 | 35 | 360 | 0.0 | 3.0 | 0.00 | 0.00 | 0.00 | 39 | 928.7 |
| 20260505061018 | 35 | 360 | 1.0 | 3.0 | 0.00 | 0.00 | 0.00 | 39 | 928.4 |
| 20260505060517 | 35 | 360 | 2.0 | 4.0 | 0.00 | 0.00 | 0.00 | 40 | 928.6 |
| 20260505060038 | 35 | 360 | 2.0 | 6.0 | 0.00 | 0.00 | 0.00 | 43 | 928.7 |
| 20260505055517 | 34 | 360 | 4.0 | 6.0 | 0.00 | 0.00 | 0.00 | 40 | 928.7 |
| 20260505055015 | 35 | 360 | 5.0 | 6.0 | 0.00 | 0.00 | 0.00 | 37 | 928.5 |
| 20260505054546 | 36 | 360 | 5.0 | 6.0 | 0.00 | 0.00 | 0.00 | 37 | 928.3 |
| 20260505054014 | 37 | 360 | 3.0 | 4.0 | 0.00 | 0.00 | 0.00 | 38 | 928.3 |
| 20260505053518 | 37 | 360 | 2.0 | 4.0 | 0.00 | 0.00 | 0.00 | 36 | 928.0 |
| 20260505053043 | 38 | 360 | 0.0 | 2.0 | 0.00 | 0.00 | 0.00 | 37 | 928.1 |
| 20260505052515 | 38 | 360 | 0.0 | 1.0 | 0.00 | 0.00 | 0.00 | 37 | 928.0 |
| 20260505052018 | 38 | 360 | 0.0 | 2.0 | 0.00 | 0.00 | 0.00 | 37 | 927.9 |
| 20260505051538 | 38 | 360 | 0.0 | 2.0 | 0.00 | 0.00 | 0.00 | 37 | 928.0 |
| 20260505051017 | 38 | 360 | 1.0 | 2.0 | 0.00 | 0.00 | 0.00 | 37 | 928.1 |
| 20260505050517 | 38 | 360 | 0.0 | 3.0 | 0.00 | 0.00 | 0.00 | 37 | 928.2 |
| 20260505041542 | 39 | 360 | 4.0 | 6.0 | 0.00 | 0.00 | 0.00 | 31 | 928.0 |
| 20260505041016 | 40 | 360 | 4.0 | 6.0 | 0.00 | 0.00 | 0.00 | 29 | 927.9 |
| 20260505040516 | 41 | 360 | 4.0 | 6.0 | 0.00 | 0.00 | 0.00 | 29 | 927.6 |
| 20260505040059 | 41 | 360 | 4.0 | 8.0 | 0.00 | 0.00 | 0.00 | 28 | 927.7 |
| 20260505035516 | 42 | 360 | 5.0 | 9.0 | 0.00 | 0.00 | 0.00 | 28 | 927.5 |
| 20260505035016 | 42 | 360 | 6.0 | 9.0 | 0.00 | 0.00 | 0.00 | 28 | 927.3 |
| 20260505034603 | 42 | 360 | 7.0 | 10.0 | 0.00 | 0.00 | 0.00 | 27 | 927.4 |
| 20260505034014 | 43 | 360 | 7.0 | 12.0 | 0.00 | 0.00 | 0.00 | 26 | 927.4 |
| 20260505033515 | 44 | 360 | 9.0 | 15.0 | 0.00 | 0.00 | 0.00 | 26 | 927.3 |
| 20260505033034 | 44 | 360 | 12.0 | 17.0 | 0.00 | 0.00 | 0.00 | 25 | 927.3 |
| 20260505032519 | 44 | 360 | 12.0 | 17.0 | 0.00 | 0.00 | 0.00 | 25 | 927.1 |
| 20260505032017 | 45 | 360 | 8.0 | 13.0 | 0.00 | 0.00 | 0.00 | 23 | 927.1 |
| 20260505031545 | 46 | 360 | 5.0 | 10.0 | 0.00 | 0.00 | 0.00 | 21 | 926.9 |
| 20260505031019 | 46 | 360 | 7.0 | 12.0 | 0.00 | 0.00 | 0.00 | 21 | 927.2 |
| 20260505030520 | 47 | 360 | 8.0 | 12.0 | 0.00 | 0.00 | 0.00 | 20 | 927.1 |
| 20260505030046 | 47 | 360 | 10.0 | 15.0 | 0.00 | 0.00 | 0.00 | 20 | 926.9 |
| 20260505025516 | 48 | 360 | 11.0 | 15.0 | 0.00 | 0.00 | 0.00 | 19 | 927.0 |
| 20260505025019 | 48 | 360 | 11.0 | 16.0 | 0.00 | 0.00 | 0.00 | 18 | 926.6 |
| 20260505024545 | 48 | 360 | 12.0 | 16.0 | 0.00 | 0.00 | 0.00 | 18 | 926.7 |
| 20260505024015 | 48 | 360 | 11.0 | 18.0 | 0.00 | 0.00 | 0.00 | 17 | 926.7 |
| 20260505023515 | 49 | 360 | 15.0 | 18.0 | 0.00 | 0.00 | 0.00 | 16 | 926.6 |
| 20260505023048 | 49 | 360 | 12.0 | 19.0 | 0.00 | 0.00 | 0.00 | 15 | 926.6 |
| 20260505022518 | 49 | 360 | 13.0 | 19.0 | 0.00 | 0.00 | 0.00 | 14 | 926.7 |
| 20260505022017 | 50 | 360 | 14.0 | 20.0 | 0.00 | 0.00 | 0.00 | 12 | 926.6 |
| 20260505021542 | 50 | 360 | 16.0 | 21.0 | 0.00 | 0.00 | 0.00 | 11 | 926.5 |
| 20260505021021 | 50 | 360 | 15.0 | 21.0 | 0.00 | 0.00 | 0.00 | 11 | 926.2 |
| 20260505020519 | 51 | 360 | 15.0 | 25.0 | 0.00 | 0.00 | 0.00 | 11 | 926.3 |
| 20260505020049 | 51 | 360 | 20.0 | 25.0 | 0.00 | 0.00 | 0.00 | 11 | 926.2 |
| 20260505015518 | 51 | 360 | 16.0 | 22.0 | 0.00 | 0.00 | 0.00 | 11 | 926.3 |
| 20260505015017 | 52 | 360 | 17.0 | 22.0 | 0.00 | 0.00 | 0.00 | 10 | 926.2 |
| 20260505014544 | 52 | 360 | 17.0 | 27.0 | 0.00 | 0.00 | 0.00 | 10 | 926.1 |
| 20260505014015 | 52 | 360 | 21.0 | 27.0 | 0.00 | 0.00 | 0.00 | 10 | 926.1 |
| 20260505013515 | 53 | 360 | 20.0 | 28.0 | 0.00 | 0.00 | 0.00 | 10 | 925.8 |
| 20260505013041 | 53 | 360 | 22.0 | 28.0 | 0.00 | 0.00 | 0.00 | 10 | 926.1 |
| 20260505012519 | 53 | 360 | 19.0 | 27.0 | 0.00 | 0.00 | 0.00 | 11 | 926.2 |
| 20260505012018 | 53 | 360 | 22.0 | 27.0 | 0.00 | 0.00 | 0.00 | 11 | 926.1 |
| 20260505011540 | 53 | 360 | 24.0 | 31.0 | 0.00 | 0.00 | 0.00 | 11 | 925.7 |
| 20260505011017 | 53 | 360 | 20.0 | 28.0 | 0.00 | 0.00 | 0.00 | 12 | 925.8 |
| 20260505010518 | 53 | 360 | 21.0 | 28.0 | 0.00 | 0.00 | 0.00 | 12 | 926.0 |
| 20260505010106 | 53 | 360 | 16.0 | 28.0 | 0.00 | 0.00 | 0.00 | 11 | 926.0 |
| 20260505005518 | 54 | 360 | 23.0 | 28.0 | 0.00 | 0.00 | 0.00 | 11 | 925.9 |
| 20260505005015 | 54 | 360 | 23.0 | 28.0 | 0.00 | 0.00 | 0.00 | 11 | 925.9 |
| 20260505004556 | 55 | 360 | 21.0 | 36.0 | 0.00 | 0.00 | 0.00 | 11 | 925.8 |
| 20260505004018 | 55 | 360 | 20.0 | 36.0 | 0.00 | 0.00 | 0.00 | 11 | 925.9 |
| 20260505003517 | 55 | 360 | 20.0 | 29.0 | 0.00 | 0.00 | 0.00 | 11 | 925.9 |
| 20260505003045 | 55 | 360 | 22.0 | 31.0 | 0.00 | 0.00 | 0.00 | 11 | 925.9 |
| 20260505002517 | 55 | 360 | 24.0 | 31.0 | 0.00 | 0.00 | 0.00 | 11 | 925.4 |
| 20260505002017 | 55 | 360 | 22.0 | 32.0 | 0.00 | 0.00 | 0.00 | 12 | 925.7 |
| 20260505001545 | 55 | 360 | 23.0 | 34.0 | 0.00 | 0.00 | 0.00 | 11 | 925.6 |
| 20260505001015 | 55 | 360 | 29.0 | 34.0 | 0.00 | 0.00 | 0.00 | 11 | 925.6 |
| 20260505000521 | 55 | 360 | 23.0 | 27.0 | 0.00 | 0.00 | 0.00 | 12 | 925.8 |
| 20260505000036 | 55 | 360 | 19.0 | 34.0 | 0.00 | 0.00 | 0.00 | 11 | 925.9 |
| 20260504235520 | 55 | 360 | 27.0 | 36.0 | 0.00 | 0.00 | 0.00 | 11 | 925.8 |
| 20260504235020 | 55 | 360 | 22.0 | 36.0 | 0.00 | 0.00 | 0.00 | 12 | 925.9 |
| 20260504234541 | 55 | 360 | 22.0 | 36.0 | 0.00 | 0.00 | 0.00 | 12 | 925.9 |
| 20260504234017 | 56 | 360 | 26.0 | 35.0 | 0.00 | 0.00 | 0.00 | 13 | 925.4 |
| 20260504233518 | 56 | 360 | 15.0 | 29.0 | 0.00 | 0.00 | 0.00 | 13 | 926.0 |
| 20260504233039 | 55 | 360 | 24.0 | 35.0 | 0.00 | 0.00 | 0.00 | 14 | 925.7 |
| 20260504232514 | 55 | 360 | 27.0 | 35.0 | 0.00 | 0.00 | 0.00 | 15 | 925.7 |
| 20260504232014 | 55 | 360 | 19.0 | 33.0 | 0.00 | 0.00 | 0.00 | 14 | 926.1 |
| 20260504231540 | 55 | 360 | 23.0 | 33.0 | 0.00 | 0.00 | 0.00 | 15 | 925.9 |
| 20260504231015 | 55 | 360 | 23.0 | 29.0 | 0.00 | 0.00 | 0.00 | 15 | 925.9 |
| 20260504230522 | 55 | 360 | 23.0 | 34.0 | 0.00 | 0.00 | 0.00 | 15 | 925.9 |
| 20260504230045 | 55 | 360 | 28.0 | 34.0 | 0.00 | 0.00 | 0.00 | 15 | 925.7 |
| 20260504225521 | 54 | 360 | 19.0 | 36.0 | 0.00 | 0.00 | 0.00 | 18 | 925.7 |
| 20260504225020 | 54 | 360 | 27.0 | 36.0 | 0.00 | 0.00 | 0.00 | 18 | 925.9 |
| 20260504224542 | 55 | 360 | 18.0 | 33.0 | 0.00 | 0.00 | 0.00 | 19 | 926.1 |
| 20260504224022 | 55 | 360 | 25.0 | 33.0 | 0.00 | 0.00 | 0.00 | 20 | 926.1 |
| 20260504223517 | 54 | 360 | 28.0 | 33.0 | 0.00 | 0.00 | 0.00 | 20 | 926.0 |
| 20260504223040 | 53 | 360 | 18.0 | 32.0 | 0.00 | 0.00 | 0.00 | 21 | 926.2 |
| 20260504222518 | 53 | 360 | 22.0 | 32.0 | 0.00 | 0.00 | 0.00 | 21 | 926.3 |
| 20260504222018 | 53 | 360 | 20.0 | 29.0 | 0.00 | 0.00 | 0.00 | 22 | 926.4 |
| 20260504221619 | 53 | 360 | 21.0 | 34.0 | 0.00 | 0.00 | 0.00 | 22 | 926.3 |
| 20260504221013 | 53 | 360 | 27.0 | 34.0 | 0.00 | 0.00 | 0.00 | 21 | 926.1 |
| 20260504220515 | 53 | 360 | 23.0 | 32.0 | 0.00 | 0.00 | 0.00 | 21 | 926.1 |
| 20260504220038 | 54 | 360 | 22.0 | 30.0 | 0.00 | 0.00 | 0.00 | 21 | 926.3 |
| 20260504215517 | 53 | 360 | 20.0 | 30.0 | 0.00 | 0.00 | 0.00 | 21 | 926.4 |
| 20260504215018 | 54 | 360 | 22.0 | 33.0 | 0.00 | 0.00 | 0.00 | 20 | 926.2 |
| 20260504214538 | 54 | 360 | 27.0 | 35.0 | 0.00 | 0.00 | 0.00 | 20 | 926.1 |
| 20260504214017 | 54 | 360 | 25.0 | 35.0 | 0.00 | 0.00 | 0.00 | 20 | 926.5 |
| 20260504213516 | 53 | 360 | 28.0 | 37.0 | 0.00 | 0.00 | 0.00 | 20 | 926.1 |
| 20260504213045 | 53 | 360 | 27.0 | 37.0 | 0.00 | 0.00 | 0.00 | 19 | 926.5 |
| 20260504212518 | 53 | 360 | 29.0 | 46.0 | 0.00 | 0.00 | 0.00 | 18 | 926.3 |
| 20260504212018 | 54 | 360 | 30.0 | 46.0 | 0.00 | 0.00 | 0.00 | 17 | 926.0 |
| 20260504211548 | 54 | 360 | 33.0 | 39.0 | 0.00 | 0.00 | 0.00 | 18 | 925.7 |
| 20260504211016 | 54 | 360 | 27.0 | 35.0 | 0.00 | 0.00 | 0.00 | 19 | 926.4 |
| 20260504210517 | 53 | 360 | 20.0 | 28.0 | 0.00 | 0.00 | 0.00 | 20 | 926.6 |
| 20260504210052 | 53 | 360 | 20.0 | 31.0 | 0.00 | 0.00 | 0.00 | 21 | 926.4 |
| 20260504205521 | 54 | 360 | 26.0 | 31.0 | 0.00 | 0.00 | 0.00 | 19 | 926.1 |
| 20260504205024 | 54 | 360 | 19.0 | 29.0 | 0.00 | 0.00 | 0.00 | 22 | 926.2 |
| 20260504204549 | 54 | 360 | 20.0 | 36.0 | 0.00 | 0.00 | 0.00 | 21 | 926.6 |
| 20260504204020 | 54 | 360 | 23.0 | 36.0 | 0.00 | 0.00 | 0.00 | 21 | 926.6 |
| 20260504203517 | 53 | 360 | 28.0 | 36.0 | 0.00 | 0.00 | 0.00 | 21 | 926.2 |
| 20260504203054 | 53 | 360 | 26.0 | 36.0 | 0.00 | 0.00 | 0.00 | 20 | 926.4 |
| 20260504202519 | 53 | 360 | 20.0 | 29.0 | 0.00 | 0.00 | 0.00 | 22 | 926.5 |
| 20260504202019 | 53 | 360 | 20.0 | 34.0 | 0.00 | 0.00 | 0.00 | 23 | 926.4 |
| 20260504201544 | 53 | 360 | 24.0 | 35.0 | 0.00 | 0.00 | 0.00 | 21 | 926.4 |
| 20260504201023 | 53 | 360 | 27.0 | 35.0 | 0.00 | 0.00 | 0.00 | 21 | 926.3 |
| 20260504200519 | 53 | 360 | 28.0 | 34.0 | 0.00 | 0.00 | 0.00 | 21 | 926.2 |
| 20260504200049 | 54 | 360 | 22.0 | 34.0 | 0.00 | 0.00 | 0.00 | 21 | 926.7 |
| 20260504195517 | 53 | 360 | 26.0 | 34.0 | 0.00 | 0.00 | 0.00 | 21 | 926.2 |
| 20260504195021 | 53 | 360 | 26.0 | 35.0 | 0.00 | 0.00 | 0.00 | 23 | 926.0 |
| 20260504194601 | 53 | 360 | 26.0 | 35.0 | 0.00 | 0.00 | 0.00 | 23 | 926.2 |
| 20260504194020 | 53 | 360 | 21.0 | 32.0 | 0.00 | 0.00 | 0.00 | 23 | 926.4 |
| 20260504193517 | 53 | 360 | 26.0 | 32.0 | 0.00 | 0.00 | 0.00 | 23 | 926.2 |
| 20260504193049 | 53 | 360 | 22.0 | 31.0 | 0.00 | 0.00 | 0.00 | 23 | 926.4 |
| 20260504192520 | 53 | 360 | 23.0 | 31.0 | 0.00 | 0.00 | 0.00 | 23 | 926.3 |
| 20260504192023 | 53 | 360 | 25.0 | 35.0 | 0.00 | 0.00 | 0.00 | 24 | 926.5 |
| 20260504191605 | 53 | 360 | 23.0 | 35.0 | 0.00 | 0.00 | 0.00 | 24 | 926.5 |
| 20260504191016 | 53 | 360 | 20.0 | 28.0 | 0.00 | 0.00 | 0.00 | 24 | 926.4 |
| 20260504190520 | 53 | 360 | 22.0 | 33.0 | 0.00 | 0.00 | 0.00 | 25 | 926.4 |
| 20260504190058 | 53 | 360 | 24.0 | 33.0 | 0.00 | 0.00 | 0.00 | 25 | 926.1 |
| 20260504185519 | 53 | 360 | 26.0 | 31.0 | 0.00 | 0.00 | 0.00 | 26 | 926.5 |
| 20260504185021 | 54 | 360 | 23.0 | 33.0 | 0.00 | 0.00 | 0.00 | 26 | 926.5 |
| 20260504184606 | 53 | 360 | 20.0 | 33.0 | 0.00 | 0.00 | 0.00 | 27 | 926.4 |
| 20260504184020 | 54 | 360 | 23.0 | 32.0 | 0.00 | 0.00 | 0.00 | 26 | 926.3 |
| 20260504183521 | 54 | 360 | 21.0 | 33.0 | 0.00 | 0.00 | 0.00 | 28 | 926.0 |
| 20260504183040 | 53 | 360 | 24.0 | 33.0 | 0.00 | 0.00 | 0.00 | 28 | 926.4 |
| 20260504182527 | 54 | 360 | 24.0 | 31.0 | 0.00 | 0.00 | 0.00 | 29 | 926.3 |
| 20260504182020 | 53 | 360 | 23.0 | 28.0 | 0.00 | 0.00 | 0.00 | 32 | 926.4 |
| 20260504181548 | 52 | 360 | 22.0 | 27.0 | 0.00 | 0.00 | 0.00 | 34 | 926.4 |
| 20260504181016 | 52 | 360 | 21.0 | 27.0 | 0.00 | 0.00 | 0.00 | 34 | 926.5 |
| 20260504180524 | 52 | 360 | 22.0 | 27.0 | 0.00 | 0.00 | 0.00 | 33 | 926.6 |
| 20260504180053 | 53 | 360 | 22.0 | 29.0 | 0.00 | 0.00 | 0.00 | 32 | 926.0 |
| 20260504175523 | 53 | 360 | 22.0 | 28.0 | 0.00 | 0.00 | 0.00 | 31 | 926.3 |
| 20260504175022 | 53 | 360 | 22.0 | 29.0 | 0.00 | 0.00 | 0.00 | 29 | 926.1 |
| 20260504174545 | 53 | 360 | 19.0 | 32.0 | 0.00 | 0.00 | 0.00 | 29 | 926.1 |
| 20260504174019 | 53 | 360 | 21.0 | 32.0 | 0.00 | 0.00 | 0.00 | 28 | 926.3 |
| 20260504173523 | 54 | 360 | 23.0 | 29.0 | 0.00 | 0.00 | 0.00 | 28 | 925.9 |
| 20260504173055 | 55 | 360 | 21.0 | 26.0 | 0.00 | 0.00 | 0.00 | 28 | 925.9 |
| 20260504172519 | 54 | 360 | 22.0 | 27.0 | 0.00 | 0.00 | 0.00 | 28 | 926.2 |
| 20260504172024 | 54 | 360 | 21.0 | 34.0 | 0.00 | 0.00 | 0.00 | 28 | 926.2 |
| 20260504171552 | 53 | 360 | 26.0 | 34.0 | 0.00 | 0.00 | 0.00 | 28 | 926.0 |
| 20260504171028 | 53 | 360 | 17.0 | 31.0 | 0.00 | 0.00 | 0.00 | 30 | 926.2 |
| 20260504170521 | 54 | 360 | 18.0 | 31.0 | 0.00 | 0.00 | 0.00 | 29 | 926.3 |
| 20260504170109 | 55 | 360 | 21.0 | 27.0 | 0.00 | 0.00 | 0.00 | 29 | 926.1 |
| 20260504151019 | 49 | 360 | 13.0 | 17.0 | 0.00 | 0.00 | 0.00 | 43 | 926.7 |
| 20260504150521 | 49 | 360 | 14.0 | 17.0 | 0.00 | 0.00 | 0.00 | 44 | 926.8 |
| 20260504141022 | 47 | 360 | 6.0 | 9.0 | 0.00 | 0.00 | 0.00 | 47 | 927.0 |
| 20260504140520 | 46 | 360 | 7.0 | 9.0 | 0.00 | 0.00 | 0.00 | 47 | 927.0 |
| 20260504140104 | 46 | 360 | 7.0 | 9.0 | 0.00 | 0.00 | 0.00 | 48 | 926.9 |
| 20260504130515 | 45 | 360 | 2.0 | 3.0 | 0.00 | 0.00 | 0.00 | 49 | 926.9 |
| 20260504110509 | 45 | 360 | 2.0 | 3.0 | 0.00 | 0.00 | 0.00 | 47 | 926.9 |
| 20260504100512 | 46 | 360 | 4.0 | 8.0 | 0.00 | 0.00 | 0.00 | 47 | 927.3 |
| 20260504081527 | 49 | 360 | 13.0 | 18.0 | 0.00 | 0.00 | 0.00 | 36 | 926.9 |
| 20260504081016 | 49 | 360 | 14.0 | 18.0 | 0.00 | 0.00 | 0.00 | 36 | 926.9 |
| 20260504080511 | 49 | 360 | 11.0 | 18.0 | 0.00 | 0.00 | 0.00 | 36 | 926.6 |